WB9FIU Weather Reports


time (UTC)temp
C
wind
direction
speed
KPH
gust
KPH
rain 1hr
cm
rain 24hr
cm
rain mn
cm
humidity
%
barometer
mb
20260902181432 33 228 8.0 12.9 0.00 0.00 0.00 48 1014.8
20260902181334 33 211 3.2 11.3 0.00 0.00 0.00 49 1014.8
20260902181232 33 190 9.7 14.5 0.00 0.00 0.00 48 1014.7
20260902173231 33 213 4.8 14.5 0.00 0.00 0.00 52 1015.2
20260902173130 33 244 9.7 11.3 0.00 0.00 0.00 51 1015.3
20260902172930 33 203 8.0 11.3 0.00 0.00 0.00 51 1015.3
20260902172831 33 203 8.0 14.5 0.00 0.00 0.00 50 1015.3
20260902155430 31 215 3.2 11.3 0.00 0.00 0.00 58 1015.9
20260902155332 31 207 3.2 8.0 0.00 0.00 0.00 58 1015.9
20260902155232 31 206 1.6 11.3 0.00 0.00 0.00 59 1015.9
20260902155131 31 182 4.8 9.7 0.00 0.00 0.00 58 1015.9
20260902155032 31 206 8.0 12.9 0.00 0.00 0.00 58 1015.9
20260902154932 31 208 11.3 14.5 0.00 0.00 0.00 58 1015.9
20260902154831 31 213 8.0 14.5 0.00 0.00 0.00 58 1015.9
20260902154732 31 229 4.8 12.9 0.00 0.00 0.00 60 1015.9
20260902154630 31 227 1.6 11.3 0.00 0.00 0.00 60 1015.9
20260902154431 31 176 0.0 3.2 0.00 0.00 0.00 60 1015.9
20260902154332 31 176 0.0 0.0 0.00 0.00 0.00 60 1015.9
20260902151231 31 238 3.2 8.0 0.00 0.00 0.00 61 1016.1
20260902151132 31 178 3.2 11.3 0.00 0.00 0.00 62 1016.2
20260902150930 31 189 0.0 0.0 0.00 0.00 0.00 64 1016.2
20260902150831 31 193 0.0 1.6 0.00 0.00 0.00 64 1016.2
20260902150731 30 201 3.2 4.8 0.00 0.00 0.00 64 1016.2
20260902150631 30 210 0.0 9.7 0.00 0.00 0.00 64 1016.3
20260902150531 30 215 0.0 0.0 0.00 0.00 0.00 65 1016.2
20260902150433 30 206 0.0 1.6 0.00 0.00 0.00 64 1016.2
20260902150232 30 195 1.6 9.7 0.00 0.00 0.00 63 1016.3
20260902150131 30 181 3.2 8.0 0.00 0.00 0.00 63 1016.3
20260902150030 30 199 4.8 8.0 0.00 0.00 0.00 63 1016.3
20260902145832 30 225 4.8 12.9 0.00 0.00 0.00 64 1016.4
20260902145632 30 204 4.8 9.7 0.00 0.00 0.00 63 1016.4
20260902145531 30 229 4.8 9.7 0.00 0.00 0.00 63 1016.4
20260902145458 30 201 3.2 8.0 0.00 0.00 0.00 66 1016.4
20260902145433 30 197 4.8 12.9 0.00 0.00 0.00 64 1016.4
20260902145331 30 198 3.2 12.9 0.00 0.00 0.00 64 1016.4
20260902145231 30 225 1.6 11.3 0.00 0.00 0.00 65 1016.4
20260902145131 30 205 1.6 3.2 0.00 0.00 0.00 66 1016.4
20260902145030 30 248 0.0 1.6 0.00 0.00 0.00 66 1016.4
20260902144930 30 248 0.0 0.0 0.00 0.00 0.00 66 1016.4
20260902144831 30 251 4.8 4.8 0.00 0.00 0.00 66 1016.4
20260902144732 30 237 4.8 12.9 0.00 0.00 0.00 65 1016.4
20260902144631 30 201 3.2 8.0 0.00 0.00 0.00 66 1016.4
20260902144532 30 189 3.2 8.0 0.00 0.00 0.00 66 1016.3
20260902144432 30 189 0.0 8.0 0.00 0.00 0.00 67 1016.4
20260902144332 30 189 0.0 0.0 0.00 0.00 0.00 67 1016.4
20260902144231 30 195 0.0 3.2 0.00 0.00 0.00 67 1016.4
20260902144131 30 216 1.6 4.8 0.00 0.00 0.00 67 1016.4
20260902144031 30 237 0.0 4.8 0.00 0.00 0.00 67 1016.4
20260902143932 30 219 1.6 4.8 0.00 0.00 0.00 67 1016.4
20260902143833 30 199 0.0 4.8 0.00 0.00 0.00 67 1016.5
20260902143731 30 154 0.0 0.0 0.00 0.00 0.00 68 1016.5
20260902143631 29 154 0.0 0.0 0.00 0.00 0.00 68 1016.5
20260902143531 29 154 0.0 1.6 0.00 0.00 0.00 68 1016.5
20260902143431 29 287 0.0 3.2 0.00 0.00 0.00 68 1016.5
20260902143345 29 289 0.0 0.0 0.00 0.00 0.00 68 1016.5
20260902143331 29 289 0.0 0.0 0.00 0.00 0.00 68 1016.5
20260902143230 29 289 0.0 0.0 0.00 0.00 0.00 68 1016.5
20260902143130 29 289 1.6 1.6 0.00 0.00 0.00 68 1016.6
20260902142931 29 245 1.6 8.0 0.00 0.00 0.00 68 1016.6
20260902142833 29 190 3.2 9.7 0.00 0.00 0.00 68 1016.6
20260902142731 29 237 4.8 11.3 0.00 0.00 0.00 67 1016.6
20260902142532 29 199 1.6 9.7 0.00 0.00 0.00 69 1016.6
20260902142431 29 171 0.0 0.0 0.00 0.00 0.00 70 1016.6
20260902142334 29 171 0.0 0.0 0.00 0.00 0.00 70 1016.6
20260902142231 28 171 0.0 0.0 0.00 0.00 0.00 70 1016.7
20260902142131 28 171 0.0 0.0 0.00 0.00 0.00 70 1016.7
20260902142026 28 175 1.6 3.2 0.00 0.00 0.00 70 1016.7
20260902141932 28 205 1.6 3.2 0.00 0.00 0.00 69 1016.7
20260902141840 28 172 1.6 3.2 0.00 0.00 0.00 69 1016.7
20260902141830 28 175 1.6 3.2 0.00 0.00 0.00 70 1016.7
20260902141731 28 175 1.6 3.2 0.00 0.00 0.00 70 1016.7
20260902141632 28 203 1.6 8.0 0.00 0.00 0.00 70 1016.7
20260902141530 28 219 1.6 4.8 0.00 0.00 0.00 70 1016.7
20260902141433 28 263 1.6 4.8 0.00 0.00 0.00 72 1016.7
20260902141332 28 181 0.0 1.6 0.00 0.00 0.00 73 1016.7
20260902141132 28 181 0.0 0.0 0.00 0.00 0.00 74 1016.6
20260902141032 28 181 0.0 0.0 0.00 0.00 0.00 74 1016.6
20260902140931 28 181 0.0 0.0 0.00 0.00 0.00 74 1016.6
20260902140834 28 181 0.0 0.0 0.00 0.00 0.00 74 1016.6
20260902140533 28 181 0.0 0.0 0.00 0.00 0.00 74 1016.6
20260902140330 27 181 0.0 0.0 0.00 0.00 0.00 74 1016.7
20260902140031 27 199 0.0 0.0 0.00 0.00 0.00 74 1016.7
20260902135930 27 199 0.0 0.0 0.00 0.00 0.00 75 1016.7
20260902135634 27 199 0.0 0.0 0.00 0.00 0.00 75 1016.6
20260902135533 27 199 0.0 0.0 0.00 0.00 0.00 75 1016.6
20260902135431 27 199 0.0 0.0 0.00 0.00 0.00 75 1016.6
20260902135330 27 199 0.0 0.0 0.00 0.00 0.00 75 1016.6
20260902135131 27 199 0.0 0.0 0.00 0.00 0.00 76 1016.5
20260902135032 27 199 0.0 0.0 0.00 0.00 0.00 76 1016.5
20260902134930 27 199 0.0 0.0 0.00 0.00 0.00 76 1016.5
20260902134833 27 199 0.0 0.0 0.00 0.00 0.00 75 1016.5
20260902134739 27 199 0.0 3.2 0.00 0.00 0.00 76 1016.5
20260902134702 27 199 0.0 3.2 0.00 0.00 0.00 76 1016.5
20260902134629 27 199 0.0 3.2 0.00 0.00 0.00 76 1016.5
20260902134610 27 192 0.0 3.2 0.00 0.00 0.00 75 1016.6
20260902134530 27 192 0.0 3.2 0.00 0.00 0.00 75 1016.6
20260902134431 27 191 0.0 1.6 0.00 0.00 0.00 76 1016.6
20260902134333 27 191 0.0 0.0 0.00 0.00 0.00 76 1016.7
20260902134134 27 191 0.0 0.0 0.00 0.00 0.00 76 1016.7
20260902134033 27 191 0.0 0.0 0.00 0.00 0.00 76 1016.7
20260902133831 27 191 0.0 0.0 0.00 0.00 0.00 76 1016.7
20260902133731 27 191 0.0 0.0 0.00 0.00 0.00 77 1016.7
20260902133631 27 191 0.0 0.0 0.00 0.00 0.00 77 1016.7
20260902133531 27 191 0.0 0.0 0.00 0.00 0.00 77 1016.7
20260902133331 27 191 0.0 0.0 0.00 0.00 0.00 77 1016.7
20260902133212 26 191 0.0 0.0 0.00 0.00 0.00 78 1016.7
20260902133130 26 191 0.0 0.0 0.00 0.00 0.00 78 1016.7
20260902132930 26 191 0.0 0.0 0.00 0.00 0.00 78 1016.8
20260902132830 26 191 0.0 0.0 0.00 0.00 0.00 79 1016.8
20260902132731 26 191 0.0 0.0 0.00 0.00 0.00 79 1016.8
20260902132631 26 191 0.0 0.0 0.00 0.00 0.00 79 1016.8
20260902132534 26 191 0.0 0.0 0.00 0.00 0.00 79 1016.8
20260902132528 26 191 0.0 0.0 0.00 0.00 0.00 79 1016.9
20260902132431 26 191 0.0 0.0 0.00 0.00 0.00 79 1016.9
20260902132331 26 191 0.0 0.0 0.00 0.00 0.00 79 1016.8
20260902132231 26 191 0.0 0.0 0.00 0.00 0.00 80 1016.8
20260902132132 26 191 0.0 0.0 0.00 0.00 0.00 80 1016.7
20260902131931 26 191 0.0 0.0 0.00 0.00 0.00 80 1016.8
20260902131832 26 199 0.0 1.6 0.00 0.00 0.00 80 1016.8
20260902131731 26 203 0.0 0.0 0.00 0.00 0.00 80 1016.7
20260902131630 26 203 0.0 0.0 0.00 0.00 0.00 80 1016.8
20260902131530 26 203 0.0 0.0 0.00 0.00 0.00 80 1016.8
20260902131505 26 203 0.0 0.0 0.00 0.00 0.00 80 1016.8
20260902131432 26 203 0.0 0.0 0.00 0.00 0.00 80 1016.8
20260902131330 26 203 0.0 0.0 0.00 0.00 0.00 80 1016.9
20260902131230 26 203 0.0 0.0 0.00 0.00 0.00 80 1016.9
20260902131131 26 203 0.0 0.0 0.00 0.00 0.00 80 1016.8
20260902131032 26 203 0.0 0.0 0.00 0.00 0.00 81 1016.8
20260902130931 26 203 0.0 0.0 0.00 0.00 0.00 81 1016.8
20260902130731 26 203 0.0 0.0 0.00 0.00 0.00 81 1016.8
20260902130631 26 203 0.0 0.0 0.00 0.00 0.00 81 1016.8
20260902130530 25 203 0.0 0.0 0.00 0.00 0.00 81 1016.8
20260902130429 25 203 0.0 0.0 0.00 0.00 0.00 81 1016.7
20260902130330 25 203 0.0 0.0 0.00 0.00 0.00 82 1016.7
20260902130231 25 203 0.0 0.0 0.00 0.00 0.00 82 1016.7
20260902130031 25 203 0.0 0.0 0.00 0.00 0.00 82 1016.7
20260902125933 25 203 0.0 0.0 0.00 0.00 0.00 82 1016.7
20260902125830 25 203 0.0 0.0 0.00 0.00 0.00 82 1016.7
20260902125732 25 203 0.0 0.0 0.00 0.00 0.00 82 1016.7
20260902125631 25 203 0.0 0.0 0.00 0.00 0.00 82 1016.8
20260902125531 25 203 0.0 0.0 0.00 0.00 0.00 82 1016.8
20260902125332 25 203 0.0 0.0 0.00 0.00 0.00 83 1016.8
20260902125131 25 203 0.0 0.0 0.00 0.00 0.00 83 1016.8
20260902125031 25 203 0.0 0.0 0.00 0.00 0.00 83 1016.8
20260902124932 25 203 0.0 0.0 0.00 0.00 0.00 83 1016.7
20260902124529 25 203 0.0 0.0 0.00 0.00 0.00 84 1016.7
20260902124431 25 203 0.0 0.0 0.00 0.00 0.00 84 1016.7
20260902124332 25 203 0.0 0.0 0.00 0.00 0.00 85 1016.7
20260902124232 25 203 0.0 0.0 0.00 0.00 0.00 85 1016.7
20260902124131 25 203 0.0 0.0 0.00 0.00 0.00 85 1016.7
20260902123932 24 203 0.0 0.0 0.00 0.00 0.00 85 1016.8
20260902123834 24 203 0.0 0.0 0.00 0.00 0.00 85 1016.8
20260902123731 24 203 0.0 0.0 0.00 0.00 0.00 85 1016.8
20260902123530 24 203 0.0 0.0 0.00 0.00 0.00 86 1016.9
20260902123432 24 203 0.0 0.0 0.00 0.00 0.00 86 1016.9
20260902123334 24 203 0.0 0.0 0.00 0.00 0.00 86 1016.9
20260902123232 24 203 0.0 0.0 0.00 0.00 0.00 86 1016.9
20260902123132 24 203 0.0 0.0 0.00 0.00 0.00 86 1016.9
20260902122932 24 203 0.0 0.0 0.00 0.00 0.00 87 1016.8
20260902122831 24 203 0.0 0.0 0.00 0.00 0.00 87 1016.7
20260902122736 23 203 0.0 0.0 0.00 0.00 0.00 87 1016.7
20260902122631 23 203 0.0 0.0 0.00 0.00 0.00 87 1016.7
20260902122031 23 203 0.0 0.0 0.00 0.00 0.00 87 1016.8
20260902121830 23 203 0.0 0.0 0.00 0.00 0.00 88 1016.8
20260902121731 23 203 0.0 0.0 0.00 0.00 0.00 88 1016.8
20260902121531 23 203 0.0 0.0 0.00 0.00 0.00 88 1016.8
20260902121431 23 203 0.0 0.0 0.00 0.00 0.00 88 1016.7
20260902121132 23 203 0.0 0.0 0.00 0.00 0.00 89 1016.7
20260902120931 23 203 0.0 0.0 0.00 0.00 0.00 89 1016.7
20260902120830 23 203 0.0 0.0 0.00 0.00 0.00 89 1016.7
20260902120730 23 203 0.0 0.0 0.00 0.00 0.00 89 1016.6
20260902120430 23 203 0.0 0.0 0.00 0.00 0.00 89 1016.6
20260902120330 23 203 0.0 0.0 0.00 0.00 0.00 89 1016.6
20260902120131 23 203 0.0 0.0 0.00 0.00 0.00 89 1016.7
20260902120030 23 203 0.0 0.0 0.00 0.00 0.00 90 1016.6
20260902115931 23 203 0.0 0.0 0.00 0.00 0.00 90 1016.6
20260902115831 23 203 0.0 0.0 0.00 0.00 0.00 90 1016.6
20260902115730 23 203 0.0 0.0 0.00 0.00 0.00 90 1016.6
20260902115431 23 203 0.0 0.0 0.00 0.00 0.00 90 1016.6
20260902115331 23 203 0.0 0.0 0.00 0.00 0.00 90 1016.5
20260902115232 23 203 0.0 0.0 0.00 0.00 0.00 90 1016.5
20260902115131 23 203 0.0 0.0 0.00 0.00 0.00 90 1016.6
20260902114931 23 203 0.0 0.0 0.00 0.00 0.00 90 1016.5
20260902114630 23 203 0.0 0.0 0.00 0.00 0.00 90 1016.5
20260902114531 23 203 0.0 0.0 0.00 0.00 0.00 90 1016.5
20260902114431 23 203 0.0 0.0 0.00 0.00 0.00 90 1016.4
20260902114330 23 203 0.0 0.0 0.00 0.00 0.00 90 1016.5
20260902114131 23 203 0.0 0.0 0.00 0.00 0.00 90 1016.5
20260902113908 23 203 0.0 0.0 0.00 0.00 0.00 90 1016.5
20260902113830 23 203 0.0 0.0 0.00 0.00 0.00 90 1016.5
20260902113631 23 203 0.0 0.0 0.00 0.00 0.00 90 1016.5
20260902113431 23 203 0.0 0.0 0.00 0.00 0.00 90 1016.4
20260902113232 23 203 0.0 0.0 0.00 0.00 0.00 90 1016.3
20260902105231 23 203 0.0 0.0 0.00 0.00 0.00 90 1016.0
20260902105133 23 203 0.0 0.0 0.00 0.00 0.00 90 1016.0
20260902105030 23 203 0.0 0.0 0.00 0.00 0.00 90 1016.0
20260902104855 23 203 0.0 0.0 0.00 0.00 0.00 90 1016.1
20260902104831 23 203 0.0 0.0 0.00 0.00 0.00 90 1016.0
20260902104731 23 203 0.0 0.0 0.00 0.00 0.00 90 1016.0
20260902104631 23 203 0.0 0.0 0.00 0.00 0.00 90 1016.0
20260902104531 23 203 0.0 0.0 0.00 0.00 0.00 90 1016.1
20260902104431 23 203 0.0 0.0 0.00 0.00 0.00 90 1016.1
20260902103531 23 203 0.0 0.0 0.00 0.00 0.00 89 1016.0
20260902103430 23 203 0.0 0.0 0.00 0.00 0.00 89 1015.9
20260902103330 23 203 0.0 0.0 0.00 0.00 0.00 89 1015.9
20260902103134 23 203 0.0 0.0 0.00 0.00 0.00 89 1015.9
20260902103030 23 203 0.0 0.0 0.00 0.00 0.00 89 1015.9
20260902102930 23 203 0.0 0.0 0.00 0.00 0.00 89 1015.9
20260902102906 23 203 0.0 0.0 0.00 0.00 0.00 89 1015.9
20260902102830 23 203 0.0 0.0 0.00 0.00 0.00 89 1015.9
20260902102631 23 203 0.0 0.0 0.00 0.00 0.00 89 1015.9
20260902102531 23 203 0.0 0.0 0.00 0.00 0.00 89 1015.9
20260902102431 23 203 0.0 0.0 0.00 0.00 0.00 89 1015.9
20260902102030 23 203 0.0 0.0 0.00 0.00 0.00 89 1015.9
20260902101930 23 203 0.0 0.0 0.00 0.00 0.00 89 1015.9
20260902101830 23 203 0.0 0.0 0.00 0.00 0.00 89 1015.9
20260902101730 23 203 0.0 0.0 0.00 0.00 0.00 89 1015.8
20260902101631 23 203 0.0 0.0 0.00 0.00 0.00 89 1015.8
20260902101531 23 203 0.0 0.0 0.00 0.00 0.00 89 1015.9
20260902101431 23 203 0.0 0.0 0.00 0.00 0.00 89 1015.8
20260902101331 23 203 0.0 0.0 0.00 0.00 0.00 89 1015.8
20260902101232 23 203 0.0 0.0 0.00 0.00 0.00 89 1015.8
20260902101131 23 203 0.0 0.0 0.00 0.00 0.00 89 1015.8
20260902100930 23 203 0.0 0.0 0.00 0.00 0.00 89 1015.9
20260902090711 24 203 0.0 0.0 0.00 0.00 0.00 85 1015.4
20260902090630 24 203 0.0 0.0 0.00 0.00 0.00 86 1015.4
20260902090529 24 203 0.0 0.0 0.00 0.00 0.00 85 1015.4
20260902090432 24 203 0.0 0.0 0.00 0.00 0.00 85 1015.4
20260902090334 24 203 0.0 0.0 0.00 0.00 0.00 85 1015.4
20260902090131 24 203 0.0 0.0 0.00 0.00 0.00 85 1015.4
20260902090032 24 203 0.0 0.0 0.00 0.00 0.00 85 1015.4
20260902085931 24 203 0.0 0.0 0.00 0.00 0.00 85 1015.4
20260902085816 24 203 0.0 0.0 0.00 0.00 0.00 85 1015.5
20260902085732 24 203 0.0 0.0 0.00 0.00 0.00 85 1015.5
20260902085633 24 203 0.0 0.0 0.00 0.00 0.00 85 1015.5
20260902085531 24 203 0.0 0.0 0.00 0.00 0.00 85 1015.5
20260902085431 24 203 0.0 0.0 0.00 0.00 0.00 85 1015.5
20260902085331 24 203 0.0 0.0 0.00 0.00 0.00 85 1015.5
20260902085233 24 203 0.0 0.0 0.00 0.00 0.00 85 1015.4
20260902085131 24 203 0.0 0.0 0.00 0.00 0.00 85 1015.4
20260902085109 24 203 0.0 0.0 0.00 0.00 0.00 85 1015.4
20260902085033 24 203 0.0 0.0 0.00 0.00 0.00 85 1015.4
20260902084932 24 203 0.0 0.0 0.00 0.00 0.00 85 1015.4
20260902084831 24 203 0.0 0.0 0.00 0.00 0.00 85 1015.4
20260902084731 24 203 0.0 0.0 0.00 0.00 0.00 85 1015.4
20260902084629 24 203 0.0 0.0 0.00 0.00 0.00 85 1015.4
20260902084432 24 203 0.0 0.0 0.00 0.00 0.00 85 1015.3
20260902084330 24 203 0.0 0.0 0.00 0.00 0.00 84 1015.3
20260902084234 24 203 0.0 0.0 0.00 0.00 0.00 85 1015.3
20260902084131 24 203 0.0 0.0 0.00 0.00 0.00 85 1015.3
20260902084030 24 203 0.0 0.0 0.00 0.00 0.00 85 1015.3
20260902083930 24 203 0.0 0.0 0.00 0.00 0.00 85 1015.3
20260902083830 24 203 0.0 0.0 0.00 0.00 0.00 85 1015.3
20260902083730 24 203 0.0 0.0 0.00 0.00 0.00 85 1015.3
20260902083534 24 203 0.0 0.0 0.00 0.00 0.00 85 1015.4
20260902083431 24 203 0.0 0.0 0.00 0.00 0.00 85 1015.3
20260902083231 24 203 0.0 0.0 0.00 0.00 0.00 85 1015.2
20260902083133 24 203 0.0 0.0 0.00 0.00 0.00 84 1015.2
20260902083031 24 203 0.0 0.0 0.00 0.00 0.00 85 1015.2
20260902082930 24 203 0.0 0.0 0.00 0.00 0.00 84 1015.2
20260902082829 24 203 0.0 0.0 0.00 0.00 0.00 84 1015.2
20260902082730 24 203 0.0 0.0 0.00 0.00 0.00 84 1015.1
20260902082632 24 203 0.0 0.0 0.00 0.00 0.00 84 1015.1
20260902082432 24 203 0.0 0.0 0.00 0.00 0.00 85 1015.1
20260902082131 24 203 0.0 0.0 0.00 0.00 0.00 84 1015.1
20260902081930 24 203 0.0 0.0 0.00 0.00 0.00 84 1015.1
20260902080431 25 203 0.0 0.0 0.00 0.00 0.00 84 1015.0
20260902080410 25 203 0.0 0.0 0.00 0.00 0.00 84 1015.0
20260902080359 25 203 0.0 0.0 0.00 0.00 0.00 84 1015.1
20260902080331 25 203 0.0 0.0 0.00 0.00 0.00 84 1015.0
20260902080231 25 203 0.0 0.0 0.00 0.00 0.00 84 1015.1
20260902080131 25 203 0.0 0.0 0.00 0.00 0.00 84 1015.1
20260902080031 25 203 0.0 0.0 0.00 0.00 0.00 84 1015.1
20260902075930 25 203 0.0 0.0 0.00 0.00 0.00 84 1015.0
20260902075905 25 203 0.0 0.0 0.00 0.00 0.00 84 1015.1
20260902075832 25 203 0.0 0.0 0.00 0.00 0.00 84 1015.1
20260902075814 25 203 0.0 0.0 0.00 0.00 0.00 84 1015.1
20260902075631 25 203 0.0 0.0 0.00 0.00 0.00 84 1015.1
20260902075531 25 203 0.0 0.0 0.00 0.00 0.00 84 1015.1
20260902075431 25 203 0.0 0.0 0.00 0.00 0.00 84 1015.1
20260902075331 25 203 0.0 0.0 0.00 0.00 0.00 84 1015.1
20260902075231 25 203 0.0 0.0 0.00 0.00 0.00 84 1015.1
20260902075215 25 203 0.0 0.0 0.00 0.00 0.00 84 1015.1
20260902075131 25 203 0.0 0.0 0.00 0.00 0.00 84 1015.1
20260902074931 25 203 0.0 0.0 0.00 0.00 0.00 84 1015.0
20260902074832 25 203 0.0 0.0 0.00 0.00 0.00 84 1015.0
20260902074531 25 203 0.0 0.0 0.00 0.00 0.00 83 1015.0
20260902074332 25 203 0.0 0.0 0.00 0.00 0.00 83 1015.0
20260902074131 25 203 0.0 0.0 0.00 0.00 0.00 83 1015.1
20260902074031 25 203 0.0 0.0 0.00 0.00 0.00 83 1015.1
20260902073930 25 203 0.0 0.0 0.00 0.00 0.00 83 1015.1
20260902073830 25 203 0.0 0.0 0.00 0.00 0.00 83 1015.1
20260902073635 25 203 0.0 0.0 0.00 0.00 0.00 83 1015.1
20260902073532 25 203 0.0 0.0 0.00 0.00 0.00 83 1015.0
20260902073431 25 203 0.0 0.0 0.00 0.00 0.00 83 1015.0
20260902073131 25 203 0.0 0.0 0.00 0.00 0.00 83 1015.0
20260902072931 25 203 0.0 0.0 0.00 0.00 0.00 83 1014.9
20260902072839 25 203 0.0 0.0 0.00 0.00 0.00 83 1014.9
20260902072831 25 203 0.0 0.0 0.00 0.00 0.00 83 1014.9
20260902072801 25 203 0.0 0.0 0.00 0.00 0.00 83 1014.9
20260902072730 25 203 0.0 0.0 0.00 0.00 0.00 83 1014.9
20260902072631 25 203 0.0 0.0 0.00 0.00 0.00 83 1014.9
20260902072605 25 203 0.0 0.0 0.00 0.00 0.00 83 1014.9
20260902072530 25 203 0.0 0.0 0.00 0.00 0.00 83 1014.9
20260902072430 25 203 0.0 0.0 0.00 0.00 0.00 83 1015.0
20260902072332 25 203 0.0 0.0 0.00 0.00 0.00 83 1015.0
20260902072231 25 203 0.0 0.0 0.00 0.00 0.00 83 1015.0
20260902072030 25 203 0.0 0.0 0.00 0.00 0.00 83 1015.0
20260902071929 25 203 0.0 0.0 0.00 0.00 0.00 83 1015.1
20260902071829 25 203 0.0 0.0 0.00 0.00 0.00 83 1015.0
20260902071730 25 203 0.0 0.0 0.00 0.00 0.00 83 1015.1
20260902071629 25 203 0.0 0.0 0.00 0.00 0.00 83 1015.0
20260902071530 25 203 0.0 0.0 0.00 0.00 0.00 83 1015.0
20260902071431 25 203 0.0 0.0 0.00 0.00 0.00 83 1015.0
20260902071405 25 203 0.0 0.0 0.00 0.00 0.00 83 1015.0
20260902071330 25 203 0.0 0.0 0.00 0.00 0.00 83 1015.0
20260902071131 25 203 0.0 0.0 0.00 0.00 0.00 83 1015.0
20260902070928 25 203 0.0 0.0 0.00 0.00 0.00 83 1015.0
20260902070829 25 203 0.0 0.0 0.00 0.00 0.00 83 1014.9
20260902070630 25 203 0.0 0.0 0.00 0.00 0.00 83 1014.9
20260902070600 25 203 0.0 0.0 0.00 0.00 0.00 83 1015.0
20260902070529 25 203 0.0 0.0 0.00 0.00 0.00 83 1015.0
20260902070430 25 203 0.0 0.0 0.00 0.00 0.00 82 1015.0
20260902070421 25 203 0.0 0.0 0.00 0.00 0.00 82 1015.0
20260902070329 25 203 0.0 0.0 0.00 0.00 0.00 82 1015.0
20260902070232 25 203 0.0 0.0 0.00 0.00 0.00 82 1015.1
20260902070131 25 203 0.0 0.0 0.00 0.00 0.00 82 1015.1
20260902065929 25 203 0.0 0.0 0.00 0.00 0.00 82 1015.0
20260902065830 25 203 0.0 0.0 0.00 0.00 0.00 82 1015.1
20260902065804 25 203 0.0 0.0 0.00 0.00 0.00 82 1015.1
20260902065729 25 203 0.0 0.0 0.00 0.00 0.00 82 1015.1
20260902065629 25 203 0.0 0.0 0.00 0.00 0.00 82 1015.1
20260902065600 25 203 0.0 0.0 0.00 0.00 0.00 82 1015.2
20260902065529 25 203 0.0 0.0 0.00 0.00 0.00 82 1015.2
20260902065431 25 203 0.0 0.0 0.00 0.00 0.00 82 1015.2
20260902065329 25 203 0.0 0.0 0.00 0.00 0.00 82 1015.2
20260902065245 25 203 0.0 0.0 0.00 0.00 0.00 82 1015.2
20260902065230 25 203 0.0 0.0 0.00 0.00 0.00 82 1015.2
20260902065130 25 203 0.0 0.0 0.00 0.00 0.00 82 1015.2
20260902065029 25 203 0.0 0.0 0.00 0.00 0.00 82 1015.2
20260902064930 25 203 0.0 0.0 0.00 0.00 0.00 82 1015.2
20260902064830 25 203 0.0 0.0 0.00 0.00 0.00 82 1015.2
20260902064732 25 203 0.0 0.0 0.00 0.00 0.00 82 1015.2
20260902064630 25 203 0.0 0.0 0.00 0.00 0.00 82 1015.2
20260902064429 25 203 0.0 0.0 0.00 0.00 0.00 82 1015.2
20260902064334 25 203 0.0 0.0 0.00 0.00 0.00 82 1015.2
20260902064230 25 203 0.0 0.0 0.00 0.00 0.00 82 1015.2
20260902064130 25 203 0.0 0.0 0.00 0.00 0.00 82 1015.2
20260902064030 25 203 0.0 0.0 0.00 0.00 0.00 82 1015.2
20260902063931 25 203 0.0 0.0 0.00 0.00 0.00 82 1015.2
20260902063801 25 203 0.0 0.0 0.00 0.00 0.00 82 1015.2
20260902063729 25 203 0.0 0.0 0.00 0.00 0.00 82 1015.2
20260902063715 25 203 0.0 0.0 0.00 0.00 0.00 81 1015.2
20260902063629 25 203 0.0 0.0 0.00 0.00 0.00 81 1015.2
20260902063438 25 203 0.0 0.0 0.00 0.00 0.00 81 1015.2
20260902063330 25 203 0.0 0.0 0.00 0.00 0.00 81 1015.2
20260902063220 25 203 0.0 0.0 0.00 0.00 0.00 81 1015.1
20260902063130 25 203 0.0 0.0 0.00 0.00 0.00 81 1015.1
20260902045031 27 203 0.0 0.0 0.00 0.00 0.00 74 1015.0
20260902044930 27 203 0.0 0.0 0.00 0.00 0.00 74 1015.0
20260902034732 28 212 0.0 0.0 0.00 0.00 0.00 71 1014.9
20260902034530 27 212 0.0 0.0 0.00 0.00 0.00 71 1015.0
20260902024930 28 176 0.0 3.2 0.00 0.00 0.00 68 1014.9
20260902024830 28 186 0.0 0.0 0.00 0.00 0.00 68 1014.9
20260902024730 28 186 0.0 0.0 0.00 0.00 0.00 68 1014.9
20260902024229 28 177 0.0 3.2 0.00 0.00 0.00 68 1015.0
20260902024130 28 175 0.0 0.0 0.00 0.00 0.00 67 1015.0
20260902024031 28 175 0.0 0.0 0.00 0.00 0.00 67 1015.0
20260902023930 28 181 0.0 3.2 0.00 0.00 0.00 67 1015.0
20260902022930 29 183 1.6 4.8 0.00 0.00 0.00 67 1014.8
20260902022831 29 160 0.0 1.6 0.00 0.00 0.00 67 1014.8
20260902022630 29 160 0.0 0.0 0.00 0.00 0.00 67 1014.9
20260902022530 29 160 0.0 0.0 0.00 0.00 0.00 67 1014.9
20260902022430 29 170 0.0 1.6 0.00 0.00 0.00 67 1014.9
20260902022333 29 178 0.0 0.0 0.00 0.00 0.00 67 1014.8
20260902022230 29 178 0.0 0.0 0.00 0.00 0.00 67 1014.9
20260902022031 29 178 0.0 0.0 0.00 0.00 0.00 67 1015.0
20260902021930 29 178 0.0 0.0 0.00 0.00 0.00 67 1015.0
20260902021829 29 178 0.0 0.0 0.00 0.00 0.00 66 1014.9
20260902021730 29 178 0.0 0.0 0.00 0.00 0.00 66 1014.9
20260902021630 29 178 0.0 0.0 0.00 0.00 0.00 66 1014.9
20260902021530 29 178 0.0 0.0 0.00 0.00 0.00 66 1014.9
20260902021431 29 178 0.0 0.0 0.00 0.00 0.00 66 1014.9
20260902021331 29 178 0.0 0.0 0.00 0.00 0.00 66 1014.9
20260902021231 29 178 0.0 0.0 0.00 0.00 0.00 66 1014.9
20260902021030 29 206 0.0 1.6 0.00 0.00 0.00 66 1014.9
20260902020929 29 206 0.0 0.0 0.00 0.00 0.00 66 1014.9
20260902020830 29 195 1.6 1.6 0.00 0.00 0.00 66 1014.9
20260902020731 29 180 0.0 3.2 0.00 0.00 0.00 66 1014.9
20260902020631 29 181 0.0 0.0 0.00 0.00 0.00 66 1014.8
20260902020534 29 181 0.0 4.8 0.00 0.00 0.00 66 1014.9
20260902020504 30 182 0.0 4.8 0.00 0.00 0.00 66 1014.9
20260902020430 30 182 0.0 4.8 0.00 0.00 0.00 66 1014.9
20260902020333 30 182 0.0 0.0 0.00 0.00 0.00 66 1014.8
20260902020231 30 182 0.0 0.0 0.00 0.00 0.00 66 1014.8
20260902020214 30 182 0.0 0.0 0.00 0.00 0.00 66 1014.7
20260902020129 30 182 0.0 0.0 0.00 0.00 0.00 66 1014.7
20260902020029 30 182 0.0 0.0 0.00 0.00 0.00 66 1014.8
20260902015931 30 182 0.0 0.0 0.00 0.00 0.00 65 1014.7
20260902015830 30 182 0.0 0.0 0.00 0.00 0.00 65 1014.8
20260902015631 30 182 0.0 0.0 0.00 0.00 0.00 65 1014.7
20260902015529 30 165 0.0 1.6 0.00 0.00 0.00 65 1014.7
20260902015429 30 158 0.0 0.0 0.00 0.00 0.00 65 1014.7
20260902015331 30 158 0.0 0.0 0.00 0.00 0.00 65 1014.7
20260902015232 30 158 0.0 0.0 0.00 0.00 0.00 65 1014.7
20260902015211 30 158 0.0 0.0 0.00 0.00 0.00 65 1014.7
20260902015132 30 158 0.0 0.0 0.00 0.00 0.00 65 1014.7
20260902015031 30 158 0.0 0.0 0.00 0.00 0.00 64 1014.7
20260902014932 30 158 0.0 0.0 0.00 0.00 0.00 64 1014.7
20260902014830 30 158 0.0 0.0 0.00 0.00 0.00 64 1014.7
20260902014731 30 154 1.6 1.6 0.00 0.00 0.00 64 1014.7
20260902014632 30 174 1.6 4.8 0.00 0.00 0.00 64 1014.7
20260902014530 30 164 1.6 8.0 0.00 0.00 0.00 64 1014.7
20260902014331 30 234 0.0 4.8 0.00 0.00 0.00 64 1014.7
20260902014236 30 171 0.0 0.0 0.00 0.00 0.00 63 1014.6
20260902014137 30 171 0.0 0.0 0.00 0.00 0.00 63 1014.6
20260902014132 30 171 0.0 0.0 0.00 0.00 0.00 63 1014.6
20260902014031 30 171 0.0 0.0 0.00 0.00 0.00 63 1014.6
20260902013931 30 171 0.0 0.0 0.00 0.00 0.00 63 1014.6
20260902013830 30 171 0.0 4.8 0.00 0.00 0.00 63 1014.6
20260902013731 30 200 0.0 3.2 0.00 0.00 0.00 63 1014.6
20260902013630 30 205 0.0 3.2 0.00 0.00 0.00 63 1014.6
20260902013531 30 216 0.0 0.0 0.00 0.00 0.00 63 1014.5
20260902013431 30 216 1.6 8.0 0.00 0.00 0.00 62 1014.5
20260902013330 30 162 0.0 9.7 0.00 0.00 0.00 62 1014.5
20260902013230 30 154 0.0 0.0 0.00 0.00 0.00 62 1014.5
20260902013130 30 161 1.6 1.6 0.00 0.00 0.00 62 1014.5
20260902012831 30 232 0.0 0.0 0.00 0.00 0.00 62 1014.4
20260902012732 30 232 0.0 0.0 0.00 0.00 0.00 62 1014.4
20260902012630 30 232 0.0 0.0 0.00 0.00 0.00 62 1014.4
20260902012530 30 203 1.6 1.6 0.00 0.00 0.00 62 1014.4
20260902012435 30 172 0.0 3.2 0.00 0.00 0.00 62 1014.4
20260902012332 30 169 1.6 0.0 0.00 0.00 0.00 61 1014.4
20260902012231 30 177 3.2 9.7 0.00 0.00 0.00 61 1014.4
20260902012132 30 214 1.6 3.2 0.00 0.00 0.00 61 1014.4
20260902011931 30 195 4.8 9.7 0.00 0.00 0.00 61 1014.4
20260902011831 30 195 3.2 9.7 0.00 0.00 0.00 61 1014.3
20260902011731 30 192 3.2 8.0 0.00 0.00 0.00 61 1014.3
20260902011431 31 181 1.6 1.6 0.00 0.00 0.00 61 1014.3
20260902011330 30 190 3.2 4.8 0.00 0.00 0.00 61 1014.3
20260902011130 30 196 3.2 8.0 0.00 0.00 0.00 60 1014.3
20260902011031 31 150 1.6 4.8 0.00 0.00 0.00 61 1014.3
20260902010929 31 186 1.6 9.7 0.00 0.00 0.00 60 1014.3
20260901235331 32 195 1.6 1.6 0.00 0.00 0.00 57 1014.4
20260901235230 32 226 0.0 3.2 0.00 0.00 0.00 57 1014.4
20260901234930 32 234 0.0 0.0 0.00 0.00 0.00 57 1014.4
20260901234831 32 234 0.0 0.0 0.00 0.00 0.00 57 1014.4
20260901234731 32 234 0.0 0.0 0.00 0.00 0.00 56 1014.4
20260901234633 32 234 0.0 0.0 0.00 0.00 0.00 56 1014.4
20260901234430 32 234 0.0 0.0 0.00 0.00 0.00 56 1014.4
20260901234330 32 234 0.0 0.0 0.00 0.00 0.00 56 1014.4
20260901234231 32 208 0.0 4.8 0.00 0.00 0.00 56 1014.4
20260901234131 32 158 0.0 0.0 0.00 0.00 0.00 56 1014.4
20260901234033 32 158 0.0 0.0 0.00 0.00 0.00 56 1014.4
20260901233931 32 158 0.0 1.6 0.00 0.00 0.00 56 1014.4
20260901233831 32 158 0.0 1.6 0.00 0.00 0.00 56 1014.4
20260901233731 32 158 0.0 0.0 0.00 0.00 0.00 56 1014.4
20260901233630 32 171 0.0 8.0 0.00 0.00 0.00 55 1014.4
20260901233531 32 182 0.0 0.0 0.00 0.00 0.00 55 1014.3
20260901233431 32 182 0.0 0.0 0.00 0.00 0.00 55 1014.4
20260901233331 32 182 0.0 0.0 0.00 0.00 0.00 55 1014.4
20260901233231 32 197 0.0 3.2 0.00 0.00 0.00 54 1014.3
20260901233131 33 216 0.0 0.0 0.00 0.00 0.00 54 1014.3
20260901232932 33 208 0.0 4.8 0.00 0.00 0.00 54 1014.4
20260901232830 33 205 0.0 0.0 0.00 0.00 0.00 53 1014.4
20260901232730 33 205 0.0 0.0 0.00 0.00 0.00 53 1014.4
20260901232630 33 205 0.0 0.0 0.00 0.00 0.00 52 1014.3
20260901232531 33 205 0.0 0.0 0.00 0.00 0.00 52 1014.4
20260901232430 33 205 1.6 0.0 0.00 0.00 0.00 52 1014.4
20260901232330 33 205 1.6 4.8 0.00 0.00 0.00 52 1014.4
20260901232230 33 171 4.8 12.9 0.00 0.00 0.00 51 1014.4
20260901232031 33 169 0.0 0.0 0.00 0.00 0.00 51 1014.3
20260901231931 33 169 0.0 0.0 0.00 0.00 0.00 51 1014.4
20260901231829 33 178 1.6 3.2 0.00 0.00 0.00 51 1014.4
20260901231730 33 196 3.2 4.8 0.00 0.00 0.00 51 1014.3
20260901231630 33 198 3.2 11.3 0.00 0.00 0.00 50 1014.4
20260901231530 33 169 1.6 4.8 0.00 0.00 0.00 50 1014.4
20260901231430 33 185 3.2 8.0 0.00 0.00 0.00 50 1014.3
20260901231330 33 190 9.7 12.9 0.00 0.00 0.00 50 1014.4
20260901231230 33 195 4.8 16.1 0.00 0.00 0.00 50 1014.3
20260901231130 33 188 4.8 12.9 0.00 0.00 0.00 50 1014.3
20260901230929 33 202 0.0 0.0 0.00 0.00 0.00 51 1014.3
20260901230830 33 204 1.6 1.6 0.00 0.00 0.00 51 1014.3
20260901230730 33 165 0.0 3.2 0.00 0.00 0.00 51 1014.3
20260901230631 33 166 0.0 3.2 0.00 0.00 0.00 51 1014.2
20260901230530 33 164 0.0 0.0 0.00 0.00 0.00 51 1014.2
20260901230430 33 164 0.0 0.0 0.00 0.00 0.00 50 1014.2
20260901230330 33 164 0.0 0.0 0.00 0.00 0.00 51 1014.2
20260901230230 33 164 0.0 0.0 0.00 0.00 0.00 51 1014.2
20260901230130 33 164 0.0 0.0 0.00 0.00 0.00 50 1014.2
20260901230030 33 174 0.0 3.2 0.00 0.00 0.00 50 1014.2
20260901225931 33 210 0.0 0.0 0.00 0.00 0.00 50 1014.2
20260901225830 33 216 3.2 8.0 0.00 0.00 0.00 50 1014.2
20260901225731 33 226 3.2 8.0 0.00 0.00 0.00 50 1014.2
20260901225631 33 217 3.2 8.0 0.00 0.00 0.00 50 1014.2
20260901225531 33 225 4.8 9.7 0.00 0.00 0.00 50 1014.2
20260901225431 33 238 8.0 14.5 0.00 0.00 0.00 50 1014.2
20260901225331 33 227 8.0 12.9 0.00 0.00 0.00 50 1014.2
20260901225230 33 242 4.8 16.1 0.00 0.00 0.00 50 1014.2
20260901225030 33 197 0.0 12.9 0.00 0.00 0.00 51 1014.2
20260901224930 33 174 0.0 0.0 0.00 0.00 0.00 50 1014.2
20260901224530 33 230 4.8 11.3 0.00 0.00 0.00 49 1014.2
20260901224430 33 222 0.0 8.0 0.00 0.00 0.00 50 1014.2
20260901224330 33 224 1.6 3.2 0.00 0.00 0.00 50 1014.2
20260901224230 33 205 1.6 4.8 0.00 0.00 0.00 50 1014.1
20260901224130 33 220 1.6 8.0 0.00 0.00 0.00 50 1014.1
20260901224030 33 226 0.0 4.8 0.00 0.00 0.00 50 1014.2
20260901223929 33 219 0.0 0.0 0.00 0.00 0.00 50 1014.2
20260901223829 33 223 3.2 8.0 0.00 0.00 0.00 50 1014.1
20260901223729 33 211 4.8 8.0 0.00 0.00 0.00 50 1014.2
20260901223629 33 235 3.2 11.3 0.00 0.00 0.00 50 1014.1
20260901223230 33 254 0.0 0.0 0.00 0.00 0.00 49 1014.1
20260901223130 33 254 0.0 0.0 0.00 0.00 0.00 49 1014.1
20260901223032 33 263 3.2 3.2 0.00 0.00 0.00 49 1014.1
20260901222932 33 209 1.6 8.0 0.00 0.00 0.00 49 1014.1
20260901222832 33 232 1.6 4.8 0.00 0.00 0.00 49 1014.1
20260901222730 33 242 0.0 8.0 0.00 0.00 0.00 50 1014.1
20260901222631 33 248 0.0 0.0 0.00 0.00 0.00 49 1014.1
20260901222530 33 237 1.6 8.0 0.00 0.00 0.00 49 1014.1
20260901221431 33 166 1.6 4.8 0.00 0.00 0.00 48 1014.1
20260901221331 33 220 3.2 8.0 0.00 0.00 0.00 48 1014.0
20260901221130 33 185 8.0 14.5 0.00 0.00 0.00 48 1014.0
20260901220930 33 178 4.8 9.7 0.00 0.00 0.00 48 1014.0
20260901220830 33 174 8.0 16.1 0.00 0.00 0.00 48 1014.1
20260901220630 33 240 3.2 9.7 0.00 0.00 0.00 48 1014.1
20260901220530 33 221 3.2 8.0 0.00 0.00 0.00 48 1014.0
20260901220432 33 226 4.8 9.7 0.00 0.00 0.00 48 1014.1
20260901220330 33 241 3.2 11.3 0.00 0.00 0.00 48 1014.0
20260901220231 33 238 3.2 8.0 0.00 0.00 0.00 48 1014.0
20260901220131 33 233 8.0 12.9 0.00 0.00 0.00 48 1014.0
20260901220030 33 226 9.7 14.5 0.00 0.00 0.00 48 1014.0
20260901215931 33 246 4.8 14.5 0.00 0.00 0.00 49 1014.0
20260901215830 34 193 1.6 8.0 0.00 0.00 0.00 50 1014.0
20260901215730 33 221 4.8 8.0 0.00 0.00 0.00 49 1013.9
20260901215630 33 239 4.8 12.9 0.00 0.00 0.00 49 1014.0
20260901215530 33 199 1.6 9.7 0.00 0.00 0.00 49 1014.0
20260901213230 34 171 1.6 4.8 0.00 0.00 0.00 48 1014.0
20260901213130 34 189 1.6 3.2 0.00 0.00 0.00 48 1014.0